Orbital Elements at Epoch 2459200.5 (2020-Dec-17.0) TDB
Reference: JPL 32 (heliocentric ecliptic J2000)
Element | Value | Uncertainty (1-sigma) | Units |
e | .1406628761660167 | 3.3096e-08 | |
a | 2.285606684622553 | 6.2627e-09 | au |
q | 1.964106674579271 | 7.6315e-08 | au |
i | 6.670788530821151 | 3.7276e-06 | deg |
node | 180.1904749551064 | 2.6001e-05 | deg |
peri | 176.4407581879416 | 2.8314e-05 | deg |
M | 115.6115294489617 | 1.0892e-05 | deg |
tp | 2458795.178800700468 (2019-Nov-07.67880070) | 3.8084e-05 | TDB |
period | 1262.120070924656 3.46 | 5.1874e-06 1.42e-08 | d yr |
n | .2852343515433173 | 1.1723e-09 | deg/d |
Q | 2.607106694665835 | 7.1436e-09 | au |
|
| | Orbit Determination Parameters
Additional Information
|